Time,TemperatureF,DewpointF,PressureIn,WindDirection,WindDirectionDegrees,WindSpeedMPH,WindSpeedGustMPH,Humidity,HourlyPrecipIn,Conditions,Clouds,dailyrainin,SoftwareType,DateUTC
2013-02-19 00:02:00,5.0,0.0,-100.00,WSW,240,21.0,35.0,80,0.00,,,-99.99,,2013-02-19 06:02:00,
2013-02-19 00:11:00,5.0,0.0,-100.00,WSW,250,24.0,34.0,80,0.00,,,-99.99,,2013-02-19 06:11:00,
2013-02-19 00:21:00,5.0,0.0,-100.00,SW,235,23.0,29.0,80,0.00,,,-99.99,,2013-02-19 06:21:00,
2013-02-19 00:32:00,4.0,-1.0,-100.00,SSW,210,29.0,40.0,80,0.00,,,-99.99,,2013-02-19 06:32:00,
2013-02-19 00:42:00,4.0,-1.0,-100.00,SSW,210,29.0,40.0,80,0.00,,,-99.99,,2013-02-19 06:42:00,
2013-02-19 00:52:00,4.0,-1.0,-100.00,SW,230,24.0,35.0,79,0.00,,,-99.99,,2013-02-19 06:52:00,
2013-02-19 01:01:00,4.0,-1.0,-100.00,SW,230,24.0,35.0,79,0.00,,,-99.99,,2013-02-19 07:01:00,
2013-02-19 01:11:00,4.0,-1.0,-100.00,SSW,210,23.0,37.0,79,0.00,,,-99.99,,2013-02-19 07:11:00,
2013-02-19 01:21:00,3.0,-1.0,-100.00,SW,230,29.0,37.0,80,0.00,,,-99.99,,2013-02-19 07:21:00,
2013-02-19 01:32:00,3.0,-1.0,-100.00,SW,235,25.0,34.0,80,0.01,,,-99.99,,2013-02-19 07:32:00,
2013-02-19 01:42:00,3.0,-1.0,-100.00,SW,235,25.0,34.0,80,0.01,,,-99.99,,2013-02-19 07:42:00,
2013-02-19 01:52:00,2.0,-2.0,-100.00,WSW,240,25.0,35.0,80,0.01,,,-99.99,,2013-02-19 07:52:00,
2013-02-19 02:02:00,2.0,-2.0,-100.00,WSW,240,25.0,35.0,80,0.01,,,-99.99,,2013-02-19 08:02:00,
2013-02-19 02:11:00,2.0,-2.0,-100.00,SW,230,26.0,33.0,80,0.01,,,-99.99,,2013-02-19 08:11:00,
2013-02-19 02:21:00,2.0,-3.0,-100.00,SW,230,22.0,37.0,80,0.01,,,-99.99,,2013-02-19 08:21:00,
2013-02-19 02:31:00,1.0,-3.0,-100.00,WSW,245,26.0,36.0,80,0.00,,,-99.99,,2013-02-19 08:31:00,
2013-02-19 02:42:00,1.0,-3.0,-100.00,WSW,245,26.0,36.0,80,0.00,,,-99.99,,2013-02-19 08:42:00,
2013-02-19 02:52:00,1.0,-4.0,-100.00,SSW,200,29.0,34.0,80,0.00,,,-99.99,,2013-02-19 08:52:00,
2013-02-19 03:01:00,1.0,-4.0,-100.00,SSW,200,29.0,34.0,80,0.00,,,-99.99,,2013-02-19 09:01:00,
2013-02-19 03:11:00,1.0,-4.0,-100.00,SW,215,26.0,34.0,80,0.00,,,-99.99,,2013-02-19 09:11:00,
2013-02-19 03:21:00,0.0,-4.0,-100.00,SW,225,26.0,37.0,79,0.00,,,-99.99,,2013-02-19 09:21:00,
2013-02-19 03:32:00,0.0,-5.0,-100.00,SW,220,28.0,36.0,79,0.00,,,-99.99,,2013-02-19 09:32:00,
2013-02-19 03:42:00,0.0,-5.0,-100.00,SW,220,28.0,36.0,79,0.00,,,-99.99,,2013-02-19 09:42:00,
2013-02-19 03:52:00,0.0,-5.0,-100.00,SW,235,29.0,40.0,79,0.00,,,-99.99,,2013-02-19 09:52:00,
2013-02-19 04:01:00,0.0,-5.0,-100.00,SW,235,29.0,40.0,79,0.00,,,-99.99,,2013-02-19 10:01:00,
2013-02-19 04:11:00,0.0,-5.0,-100.00,SW,235,24.0,35.0,79,0.00,,,-99.99,,2013-02-19 10:11:00,
2013-02-19 04:21:00,0.0,-5.0,-100.00,SW,225,27.0,37.0,79,0.00,,,-99.99,,2013-02-19 10:21:00,
2013-02-19 04:31:00,0.0,-5.0,-100.00,WSW,240,30.0,38.0,79,0.00,,,-99.99,,2013-02-19 10:31:00,
2013-02-19 04:41:00,0.0,-5.0,-100.00,WSW,240,30.0,38.0,79,0.00,,,-99.99,,2013-02-19 10:41:00,
2013-02-19 04:51:00,0.0,-5.0,-100.00,WSW,250,27.0,35.0,79,0.00,,,-99.99,,2013-02-19 10:51:00,
2013-02-19 05:01:00,0.0,-5.0,-100.00,WSW,250,27.0,35.0,79,0.00,,,-99.99,,2013-02-19 11:01:00,
2013-02-19 05:11:00,0.0,-5.0,-100.00,WSW,250,27.0,40.0,78,0.00,,,-99.99,,2013-02-19 11:11:00,
2013-02-19 05:21:00,0.0,-5.0,-100.00,WSW,250,26.0,36.0,78,0.00,,,-99.99,,2013-02-19 11:21:00,
2013-02-19 05:32:00,0.0,-6.0,-100.00,WSW,245,25.0,35.0,78,0.00,,,-99.99,,2013-02-19 11:32:00,
2013-02-19 05:42:00,0.0,-6.0,-100.00,WSW,245,25.0,35.0,78,0.00,,,-99.99,,2013-02-19 11:42:00,
2013-02-19 05:52:00,0.0,-6.0,-100.00,WSW,240,27.0,34.0,78,0.00,,,-99.99,,2013-02-19 11:52:00,
2013-02-19 06:01:00,0.0,-6.0,-100.00,WSW,240,27.0,34.0,78,0.00,,,-99.99,,2013-02-19 12:01:00,
2013-02-19 06:12:00,0.0,-6.0,-100.00,WSW,250,24.0,34.0,78,0.00,,,-99.99,,2013-02-19 12:12:00,
2013-02-19 06:22:00,-1.0,-6.0,-100.00,SW,215,28.0,35.0,78,0.00,,,-99.99,,2013-02-19 12:22:00,
2013-02-19 06:32:00,-1.0,-6.0,-100.00,SW,230,29.0,35.0,78,0.00,,,-99.99,,2013-02-19 12:32:00,
2013-02-19 06:42:00,-1.0,-6.0,-100.00,SW,230,29.0,35.0,78,0.00,,,-99.99,,2013-02-19 12:42:00,
2013-02-19 06:52:00,-1.0,-6.0,-100.00,SW,225,26.0,32.0,78,0.00,,,-99.99,,2013-02-19 12:52:00,
2013-02-19 07:02:00,-1.0,-6.0,-100.00,SW,225,26.0,32.0,78,0.00,,,-99.99,,2013-02-19 13:02:00,
2013-02-19 07:11:00,-1.0,-6.0,-100.00,SW,235,29.0,35.0,78,0.00,,,-99.99,,2013-02-19 13:11:00,
2013-02-19 07:22:00,-1.0,-6.0,-100.00,SW,230,27.0,35.0,77,0.00,,,-99.99,,2013-02-19 13:22:00,
2013-02-19 07:32:00,-1.0,-7.0,-100.00,SW,235,27.0,35.0,77,0.00,,,-99.99,,2013-02-19 13:32:00,
2013-02-19 07:41:00,-1.0,-7.0,-100.00,SW,235,27.0,35.0,77,0.00,,,-99.99,,2013-02-19 13:41:00,
2013-02-19 07:52:00,-1.0,-7.0,-100.00,SW,220,22.0,36.0,77,0.00,,,-99.99,,2013-02-19 13:52:00,
2013-02-19 08:01:00,-1.0,-7.0,-100.00,SW,220,22.0,36.0,77,0.00,,,-99.99,,2013-02-19 14:01:00,
2013-02-19 08:11:00,-1.0,-6.0,-100.00,WSW,255,21.0,32.0,77,0.00,,,-99.99,,2013-02-19 14:11:00,
2013-02-19 08:21:00,-1.0,-6.0,-100.00,WSW,240,24.0,31.0,77,0.00,,,-99.99,,2013-02-19 14:21:00,
2013-02-19 08:32:00,0.0,-6.0,-100.00,SW,230,30.0,38.0,76,0.00,,,-99.99,,2013-02-19 14:32:00,
2013-02-19 08:42:00,0.0,-6.0,-100.00,SW,230,30.0,38.0,76,0.00,,,-99.99,,2013-02-19 14:42:00,
2013-02-19 08:52:00,0.0,-6.0,-100.00,SW,225,30.0,39.0,74,0.00,,,-99.99,,2013-02-19 14:52:00,
2013-02-19 09:01:00,0.0,-6.0,-100.00,SW,225,30.0,39.0,74,0.00,,,-99.99,,2013-02-19 15:01:00,
2013-02-19 09:11:00,0.0,-6.0,-100.00,SW,235,29.0,37.0,74,0.00,,,-99.99,,2013-02-19 15:11:00,
2013-02-19 09:21:00,1.0,-6.0,-100.00,WSW,250,27.0,34.0,74,0.00,,,-99.99,,2013-02-19 15:21:00,
2013-02-19 09:32:00,2.0,-5.0,-100.00,WSW,250,21.0,36.0,74,0.00,,,-99.99,,2013-02-19 15:32:00,
2013-02-19 09:42:00,2.0,-5.0,-100.00,WSW,250,21.0,36.0,74,0.00,,,-99.99,,2013-02-19 15:42:00,
2013-02-19 09:52:00,1.0,-5.0,-100.00,SW,235,30.0,38.0,73,0.00,,,-99.99,,2013-02-19 15:52:00,
2013-02-19 10:02:00,1.0,-5.0,-100.00,SW,235,30.0,38.0,73,0.00,,,-99.99,,2013-02-19 16:02:00,
2013-02-19 10:11:00,1.0,-6.0,-100.00,SW,225,29.0,36.0,73,0.00,,,-99.99,,2013-02-19 16:11:00,
2013-02-19 10:21:00,1.0,-5.0,-100.00,SW,225,25.0,37.0,73,0.00,,,-99.99,,2013-02-19 16:21:00,
2013-02-19 10:32:00,2.0,-5.0,-100.00,SSW,205,28.0,36.0,72,0.00,,,-99.99,,2013-02-19 16:32:00,
2013-02-19 10:41:00,2.0,-5.0,-100.00,SSW,205,28.0,36.0,72,0.00,,,-99.99,,2013-02-19 16:41:00,
2013-02-19 10:51:00,2.0,-5.0,-100.00,SW,235,31.0,39.0,72,0.00,,,-99.99,,2013-02-19 16:51:00,
2013-02-19 11:01:00,2.0,-5.0,-100.00,SW,235,31.0,39.0,72,0.00,,,-99.99,,2013-02-19 17:01:00,
2013-02-19 11:11:00,2.0,-5.0,-100.00,SW,225,29.0,35.0,73,0.00,,,-99.99,,2013-02-19 17:11:00,
2013-02-19 11:21:00,2.0,-5.0,-100.00,SW,220,32.0,38.0,73,0.00,,,-99.99,,2013-02-19 17:21:00,
2013-02-19 11:32:00,2.0,-4.0,-100.00,West,260,29.0,39.0,73,0.00,,,-99.99,,2013-02-19 17:32:00,
2013-02-19 11:41:00,2.0,-4.0,-100.00,West,260,29.0,39.0,73,0.00,,,-99.99,,2013-02-19 17:41:00,
2013-02-19 11:52:00,4.0,-3.0,-100.00,WSW,255,24.0,35.0,73,0.00,,,-99.99,,2013-02-19 17:52:00,
2013-02-19 12:01:00,4.0,-3.0,-100.00,WSW,255,24.0,35.0,73,0.00,,,-99.99,,2013-02-19 18:01:00,
2013-02-19 12:11:00,4.0,-3.0,-100.00,SW,220,28.0,35.0,73,0.00,,,-99.99,,2013-02-19 18:11:00,
2013-02-19 12:21:00,4.0,-3.0,-100.00,SW,230,29.0,39.0,72,0.00,,,-99.99,,2013-02-19 18:21:00,
2013-02-19 12:31:00,5.0,-2.0,-100.00,SSW,205,29.0,37.0,72,0.00,,,-99.99,,2013-02-19 18:31:00,
2013-02-19 12:41:00,5.0,-2.0,-100.00,SW,235,28.0,35.0,72,0.00,,,-99.99,,2013-02-19 18:41:00,
2013-02-19 12:51:00,5.0,-2.0,-100.00,WSW,250,28.0,34.0,72,0.00,,,-99.99,,2013-02-19 18:51:00,
2013-02-19 13:01:00,6.0,-1.0,-100.00,WSW,255,24.0,34.0,72,0.00,,,-99.99,,2013-02-19 19:01:00,
2013-02-19 13:11:00,5.0,-2.0,-100.00,SW,225,29.0,34.0,71,0.00,,,-99.99,,2013-02-19 19:11:00,
2013-02-19 13:21:00,6.0,-1.0,-100.00,SW,230,23.0,35.0,71,0.00,,,-99.99,,2013-02-19 19:21:00,
2013-02-19 13:31:00,8.0,0.0,-100.00,SW,235,24.0,30.0,72,0.00,,,-99.99,,2013-02-19 19:31:00,
2013-02-19 13:41:00,8.0,0.0,-100.00,SW,235,24.0,30.0,72,0.00,,,-99.99,,2013-02-19 19:41:00,
2013-02-19 13:51:00,8.0,1.0,-100.00,WSW,245,21.0,29.0,71,0.00,,,-99.99,,2013-02-19 19:51:00,
2013-02-19 14:01:00,8.0,1.0,-100.00,WSW,245,21.0,29.0,71,0.00,,,-99.99,,2013-02-19 20:01:00,
2013-02-19 14:12:00,8.0,0.0,-100.00,WSW,240,22.0,34.0,70,0.00,,,-99.99,,2013-02-19 20:12:00,
2013-02-19 14:21:00,8.0,0.0,-100.00,West,270,22.0,34.0,70,0.00,,,-99.99,,2013-02-19 20:21:00,
2013-02-19 14:32:00,8.0,0.0,-100.00,WSW,240,24.0,31.0,71,0.00,,,-99.99,,2013-02-19 20:32:00,
2013-02-19 14:41:00,8.0,0.0,-100.00,WSW,240,24.0,31.0,71,0.00,,,-99.99,,2013-02-19 20:41:00,
2013-02-19 14:52:00,7.0,0.0,-100.00,WSW,245,26.0,31.0,70,0.00,,,-99.99,,2013-02-19 20:52:00,
2013-02-19 15:02:00,7.0,0.0,-100.00,WSW,245,26.0,31.0,70,0.00,,,-99.99,,2013-02-19 21:02:00,
2013-02-19 15:11:00,7.0,0.0,-100.00,WSW,250,22.0,29.0,70,0.00,,,-99.99,,2013-02-19 21:11:00,
2013-02-19 15:21:00,8.0,0.0,-100.00,WSW,240,20.0,29.0,70,0.00,,,-99.99,,2013-02-19 21:21:00,
2013-02-19 15:32:00,7.0,0.0,-100.00,WSW,245,21.0,30.0,70,0.00,,,-99.99,,2013-02-19 21:32:00,
2013-02-19 15:42:00,7.0,0.0,-100.00,WSW,245,21.0,30.0,70,0.00,,,-99.99,,2013-02-19 21:42:00,
2013-02-19 15:51:00,7.0,-1.0,-100.00,SW,230,23.0,29.0,70,0.00,,,-99.99,,2013-02-19 21:51:00,
2013-02-19 16:02:00,7.0,-1.0,-100.00,SW,230,23.0,29.0,70,0.00,,,-99.99,,2013-02-19 22:02:00,
2013-02-19 16:11:00,6.0,-1.0,-100.00,West,260,26.0,29.0,70,0.00,,,-99.99,,2013-02-19 22:11:00,
2013-02-19 16:21:00,6.0,-1.0,-100.00,WSW,240,20.0,27.0,70,0.00,,,-99.99,,2013-02-19 22:21:00,
2013-02-19 16:32:00,6.0,-2.0,-100.00,SSW,210,25.0,31.0,70,0.00,,,-99.99,,2013-02-19 22:32:00,
2013-02-19 16:41:00,6.0,-2.0,-100.00,SSW,210,25.0,31.0,70,0.00,,,-99.99,,2013-02-19 22:41:00,
2013-02-19 16:51:00,5.0,-2.0,-100.00,SW,235,19.0,27.0,70,0.00,,,-99.99,,2013-02-19 22:51:00,
2013-02-19 17:01:00,5.0,-2.0,-100.00,SW,235,19.0,27.0,70,0.00,,,-99.99,,2013-02-19 23:01:00,
2013-02-19 17:11:00,4.0,-3.0,-100.00,West,260,22.0,27.0,70,0.00,,,-99.99,,2013-02-19 23:11:00,
2013-02-19 17:21:00,4.0,-3.0,-100.00,WSW,240,22.0,29.0,71,0.00,,,-99.99,,2013-02-19 23:21:00,
2013-02-19 17:32:00,3.0,-4.0,-100.00,WSW,245,19.0,28.0,72,0.00,,,-99.99,,2013-02-19 23:32:00,
2013-02-19 17:41:00,3.0,-4.0,-100.00,WSW,245,19.0,28.0,72,0.00,,,-99.99,,2013-02-19 23:41:00,
2013-02-19 17:52:00,2.0,-5.0,-100.00,SW,225,24.0,30.0,73,0.00,,,-99.99,,2013-02-19 23:52:00,
2013-02-19 18:01:00,2.0,-5.0,-100.00,SW,225,24.0,30.0,73,0.00,,,-99.99,,2013-02-20 00:01:00,
2013-02-19 18:11:00,2.0,-5.0,-100.00,SW,235,21.0,29.0,73,0.00,,,-99.99,,2013-02-20 00:11:00,
2013-02-19 18:21:00,1.0,-5.0,-100.00,WSW,250,26.0,31.0,74,0.00,,,-99.99,,2013-02-20 00:21:00,
2013-02-19 18:32:00,0.0,-6.0,-100.00,WSW,250,21.0,28.0,74,0.00,,,-99.99,,2013-02-20 00:32:00,
2013-02-19 18:41:00,0.0,-6.0,-100.00,WSW,250,21.0,28.0,74,0.00,,,-99.99,,2013-02-20 00:41:00,
2013-02-19 18:51:00,0.0,-6.0,-100.00,WSW,245,19.0,27.0,74,0.00,,,-99.99,,2013-02-20 00:51:00,
2013-02-19 19:02:00,0.0,-6.0,-100.00,WSW,245,19.0,27.0,74,0.00,,,-99.99,,2013-02-20 01:02:00,
2013-02-19 19:11:00,0.0,-7.0,-100.00,WSW,255,17.0,26.0,75,0.00,,,-99.99,,2013-02-20 01:11:00,
2013-02-19 19:21:00,0.0,-7.0,-100.00,WSW,255,17.0,26.0,75,0.00,,,-99.99,,2013-02-20 01:21:00,
2013-02-19 19:32:00,-1.0,-7.0,-100.00,SW,230,16.0,26.0,75,0.00,,,-99.99,,2013-02-20 01:32:00,
2013-02-19 19:42:00,-1.0,-7.0,-100.00,SW,230,16.0,26.0,75,0.00,,,-99.99,,2013-02-20 01:42:00,
2013-02-19 19:51:00,-1.0,-7.0,-100.00,West,270,17.0,26.0,75,0.00,,,-99.99,,2013-02-20 01:51:00,
2013-02-19 20:01:00,-1.0,-7.0,-100.00,West,270,17.0,26.0,75,0.00,,,-99.99,,2013-02-20 02:01:00,
2013-02-19 20:11:00,-2.0,-7.0,-100.00,WSW,240,18.0,24.0,75,0.00,,,-99.99,,2013-02-20 02:11:00,
2013-02-19 20:21:00,-2.0,-8.0,-100.00,SW,215,19.0,26.0,75,0.00,,,-99.99,,2013-02-20 02:21:00,
2013-02-19 20:32:00,-2.0,-8.0,-100.00,SW,220,17.0,26.0,76,0.00,,,-99.99,,2013-02-20 02:32:00,
2013-02-19 20:42:00,-2.0,-8.0,-100.00,SW,220,17.0,26.0,76,0.00,,,-99.99,,2013-02-20 02:42:00,
2013-02-19 20:52:00,-3.0,-8.0,-100.00,West,260,20.0,24.0,76,0.00,,,-99.99,,2013-02-20 02:52:00,
2013-02-19 21:01:00,-3.0,-8.0,-100.00,West,260,20.0,24.0,76,0.00,,,-99.99,,2013-02-20 03:01:00,
2013-02-19 21:12:00,-3.0,-8.0,-100.00,SW,235,19.0,24.0,76,0.00,,,-99.99,,2013-02-20 03:12:00,
2013-02-19 21:22:00,-3.0,-8.0,-100.00,WSW,240,17.0,23.0,76,0.00,,,-99.99,,2013-02-20 03:22:00,
2013-02-19 21:32:00,-3.0,-9.0,-100.00,WSW,245,14.0,23.0,76,0.00,,,-99.99,,2013-02-20 03:32:00,
2013-02-19 21:41:00,-3.0,-9.0,-100.00,WSW,245,14.0,23.0,76,0.00,,,-99.99,,2013-02-20 03:41:00,
2013-02-19 21:51:00,-3.0,-9.0,-100.00,WSW,240,15.0,21.0,77,0.00,,,-99.99,,2013-02-20 03:51:00,
2013-02-19 22:01:00,-3.0,-9.0,-100.00,WSW,240,15.0,21.0,77,0.00,,,-99.99,,2013-02-20 04:01:00,
2013-02-19 22:11:00,-3.0,-9.0,-100.00,WSW,245,14.0,21.0,77,0.00,,,-99.99,,2013-02-20 04:11:00,
2013-02-19 22:21:00,-3.0,-9.0,-100.00,West,260,15.0,20.0,77,0.00,,,-99.99,,2013-02-20 04:21:00,
2013-02-19 22:31:00,-3.0,-9.0,-100.00,WSW,255,13.0,19.0,77,0.00,,,-99.99,,2013-02-20 04:31:00,
2013-02-19 22:41:00,-3.0,-9.0,-100.00,WSW,255,13.0,19.0,77,0.00,,,-99.99,,2013-02-20 04:41:00,
2013-02-19 22:51:00,-4.0,-9.0,-100.00,SW,215,9.0,17.0,77,0.00,,,-99.99,,2013-02-20 04:51:00,
2013-02-19 23:02:00,-4.0,-9.0,-100.00,SW,215,9.0,17.0,77,0.00,,,-99.99,,2013-02-20 05:02:00,
2013-02-19 23:12:00,-4.0,-9.0,-100.00,NNW,345,10.0,15.0,77,0.00,,,-99.99,,2013-02-20 05:12:00,
2013-02-19 23:22:00,-4.0,-9.0,-100.00,SW,230,7.0,15.0,77,0.00,,,-99.99,,2013-02-20 05:22:00,
2013-02-19 23:32:00,-3.0,-9.0,-100.00,NNW,345,6.0,12.0,77,0.00,,,-99.99,,2013-02-20 05:32:00,
2013-02-19 23:43:00,-3.0,-9.0,-100.00,NNW,345,6.0,12.0,77,0.00,,,-99.99,,2013-02-20 05:43:00,
2013-02-19 23:52:00,-3.0,-9.0,-100.00,SW,235,9.0,12.0,77,0.00,,,-99.99,,2013-02-20 05:52:00,